Time,TemperatureF,DewpointF,PressureIn,WindDirection,WindDirectionDegrees,WindSpeedMPH,WindSpeedGustMPH,Humidity,HourlyPrecipIn,Conditions,Clouds,dailyrainin,SolarRadiationWatts/m^2,SoftwareType,DateUTC
2013-05-26 00:06:00,59.3,19.3,29.85,SW,219,0.0,0.0,21,0.00,,,0.00,0,Wunderground v.1.15,2013-05-26 07:06:00,
2013-05-26 00:11:00,59.0,19.1,29.85,SW,220,0.0,0.0,21,0.00,,,0.00,0,Wunderground v.1.15,2013-05-26 07:11:00,
2013-05-26 00:21:00,59.0,19.1,29.85,SW,220,0.0,0.0,21,0.00,,,0.00,0,Wunderground v.1.15,2013-05-26 07:21:00,
2013-05-26 00:26:00,58.7,18.8,29.85,SW,220,0.0,0.0,21,0.00,,,0.00,0,Wunderground v.1.15,2013-05-26 07:26:00,
2013-05-26 00:36:00,58.2,19.5,29.85,SW,219,0.0,0.0,22,0.00,,,0.00,0,Wunderground v.1.15,2013-05-26 07:36:00,
2013-05-26 00:46:00,57.6,19.0,29.84,SW,219,0.0,0.0,22,0.00,,,0.00,0,Wunderground v.1.15,2013-05-26 07:46:00,
2013-05-26 00:56:00,57.1,17.5,29.85,SW,220,0.0,0.0,21,0.00,,,0.00,0,Wunderground v.1.15,2013-05-26 07:56:00,
2013-05-26 01:01:00,56.7,17.1,29.85,SW,220,0.0,0.0,21,0.00,,,0.00,0,Wunderground v.1.15,2013-05-26 08:01:00,
2013-05-26 01:11:00,55.9,18.6,29.85,SW,220,0.0,0.0,23,0.00,,,0.00,0,Wunderground v.1.15,2013-05-26 08:11:00,
2013-05-26 01:21:00,54.9,17.7,29.84,SW,220,0.0,0.0,23,0.00,,,0.00,0,Wunderground v.1.15,2013-05-26 08:21:00,
2013-05-26 01:31:00,53.9,17.9,29.85,SW,220,0.0,0.0,24,0.00,,,0.00,0,Wunderground v.1.15,2013-05-26 08:31:00,
2013-05-26 01:36:00,53.5,18.5,29.85,SW,219,0.0,0.0,25,0.00,,,0.00,0,Wunderground v.1.15,2013-05-26 08:36:00,
2013-05-26 01:46:00,53.2,18.2,29.85,SW,220,0.0,0.0,25,0.00,,,0.00,0,Wunderground v.1.15,2013-05-26 08:46:00,
2013-05-26 01:51:00,53.1,18.2,29.85,SW,219,0.0,0.0,25,0.00,,,0.00,0,Wunderground v.1.15,2013-05-26 08:51:00,
2013-05-26 02:01:00,52.9,18.9,29.85,SW,220,0.0,3.0,26,0.00,,,0.00,0,Wunderground v.1.15,2013-05-26 09:01:00,
2013-05-26 02:11:00,52.8,18.8,29.84,SW,220,0.0,0.0,26,0.00,,,0.00,0,Wunderground v.1.15,2013-05-26 09:11:00,
2013-05-26 02:21:00,52.7,18.7,29.85,SW,220,0.0,0.0,26,0.00,,,0.00,0,Wunderground v.1.15,2013-05-26 09:21:00,
2013-05-26 02:26:00,52.7,18.7,29.85,SW,220,0.0,0.0,26,0.00,,,0.00,0,Wunderground v.1.15,2013-05-26 09:26:00,
2013-05-26 02:36:00,52.5,19.4,29.85,SW,220,0.0,0.0,27,0.00,,,0.00,0,Wunderground v.1.15,2013-05-26 09:36:00,
2013-05-26 02:41:00,52.6,19.5,29.85,SW,220,0.0,0.0,27,0.00,,,0.00,0,Wunderground v.1.15,2013-05-26 09:41:00,
2013-05-26 02:51:00,53.0,19.9,29.85,SW,219,0.0,0.0,27,0.00,,,0.00,0,Wunderground v.1.15,2013-05-26 09:51:00,
2013-05-26 02:56:00,53.2,20.0,29.85,SW,220,0.0,0.0,27,0.00,,,0.00,0,Wunderground v.1.15,2013-05-26 09:56:00,
2013-05-26 03:06:00,53.6,19.5,29.85,SW,220,0.0,0.0,26,0.00,,,0.00,0,Wunderground v.1.15,2013-05-26 10:06:00,
2013-05-26 03:16:00,53.6,19.5,29.85,SW,220,0.0,0.0,26,0.00,,,0.00,0,Wunderground v.1.15,2013-05-26 10:16:00,
2013-05-26 03:26:00,53.4,19.3,29.85,SW,220,0.0,0.0,26,0.00,,,0.00,0,Wunderground v.1.15,2013-05-26 10:26:00,
2013-05-26 03:31:00,53.1,19.1,29.85,SW,220,0.0,0.0,26,0.00,,,0.00,0,Wunderground v.1.15,2013-05-26 10:31:00,
2013-05-26 03:41:00,52.5,18.6,29.86,SW,219,0.0,0.0,26,0.00,,,0.00,0,Wunderground v.1.15,2013-05-26 10:41:00,
2013-05-26 03:46:00,52.2,19.2,29.86,SW,220,0.0,0.0,27,0.00,,,0.00,0,Wunderground v.1.15,2013-05-26 10:46:00,
2013-05-26 03:56:00,51.6,18.7,29.86,SW,220,0.0,0.0,27,0.00,,,0.00,0,Wunderground v.1.15,2013-05-26 10:56:00,
2013-05-26 04:06:00,51.4,20.2,29.86,SW,216,0.0,0.0,29,0.00,,,0.00,0,Wunderground v.1.15,2013-05-26 11:06:00,
2013-05-26 04:16:00,51.4,20.2,29.86,SW,217,0.0,0.0,29,0.00,,,0.00,0,Wunderground v.1.15,2013-05-26 11:16:00,
2013-05-26 04:21:00,51.4,20.2,29.86,SW,217,0.0,0.0,29,0.00,,,0.00,0,Wunderground v.1.15,2013-05-26 11:21:00,
2013-05-26 04:31:00,51.8,22.1,29.86,SW,217,0.0,4.0,31,0.00,,,0.00,0,Wunderground v.1.15,2013-05-26 11:31:00,
2013-05-26 04:41:00,53.1,20.8,29.85,SW,226,1.0,1.0,28,0.00,,,0.00,0,Wunderground v.1.15,2013-05-26 11:41:00,
2013-05-26 04:51:00,53.2,20.9,29.86,SW,226,0.0,0.0,28,0.00,,,0.00,0,Wunderground v.1.15,2013-05-26 11:51:00,
2013-05-26 04:56:00,53.0,20.7,29.86,SW,226,0.0,0.0,28,0.00,,,0.00,0,Wunderground v.1.15,2013-05-26 11:56:00,
2013-05-26 05:06:00,52.2,20.9,29.85,SW,226,0.0,0.0,29,0.00,,,0.00,0,Wunderground v.1.15,2013-05-26 12:06:00,
2013-05-26 05:11:00,51.8,21.3,29.85,SW,226,0.0,0.0,30,0.00,,,0.00,0,Wunderground v.1.15,2013-05-26 12:11:00,
2013-05-26 05:21:00,51.4,21.0,29.86,SW,226,0.0,0.0,30,0.00,,,0.00,0,Wunderground v.1.15,2013-05-26 12:21:00,
2013-05-26 05:31:00,50.6,21.0,29.86,SW,226,0.0,0.0,31,0.00,,,0.00,9,Wunderground v.1.15,2013-05-26 12:31:00,
2013-05-26 05:41:00,50.0,20.5,29.86,SW,226,0.0,0.0,31,0.00,,,0.00,16,Wunderground v.1.15,2013-05-26 12:41:00,
2013-05-26 05:51:00,49.7,21.7,29.86,SW,226,0.0,0.0,33,0.00,,,0.00,35,Wunderground v.1.15,2013-05-26 12:51:00,
2013-05-26 06:01:00,50.3,22.3,29.86,SW,226,0.0,0.0,33,0.00,,,0.00,67,Wunderground v.1.15,2013-05-26 13:01:00,
2013-05-26 06:06:00,51.0,22.9,29.86,SW,226,0.0,0.0,33,0.00,,,0.00,83,Wunderground v.1.15,2013-05-26 13:06:00,
2013-05-26 06:16:00,52.8,23.7,29.86,SW,226,0.0,2.0,32,0.00,,,0.00,105,Wunderground v.1.15,2013-05-26 13:16:00,
2013-05-26 06:21:00,53.9,24.7,29.86,SW,226,0.0,0.0,32,0.00,,,0.00,127,Wunderground v.1.15,2013-05-26 13:21:00,
2013-05-26 06:31:00,57.6,26.4,29.86,SW,216,1.0,7.0,30,0.00,,,0.00,178,Wunderground v.1.15,2013-05-26 13:31:00,
2013-05-26 06:41:00,61.6,27.3,29.86,South,191,4.0,4.0,27,0.00,,,0.00,227,Wunderground v.1.15,2013-05-26 13:41:00,
2013-05-26 06:51:00,64.1,28.5,29.86,South,186,5.0,5.0,26,0.00,,,0.00,264,Wunderground v.1.15,2013-05-26 13:51:00,
2013-05-26 06:56:00,65.2,28.5,29.86,South,183,5.0,7.0,25,0.00,,,0.00,257,Wunderground v.1.15,2013-05-26 13:56:00,
2013-05-26 07:06:00,66.7,28.7,29.86,South,177,6.0,9.0,24,0.00,,,0.00,320,Wunderground v.1.15,2013-05-26 14:06:00,
2013-05-26 07:16:00,68.2,29.0,29.86,South,173,8.0,9.0,23,0.00,,,0.00,343,Wunderground v.1.15,2013-05-26 14:16:00,
2013-05-26 07:26:00,69.5,30.0,29.86,South,189,9.0,9.0,23,0.00,,,0.00,388,Wunderground v.1.15,2013-05-26 14:26:00,
2013-05-26 07:31:00,70.3,29.6,29.86,South,187,10.0,11.0,22,0.00,,,0.00,392,Wunderground v.1.15,2013-05-26 14:31:00,
2013-05-26 07:41:00,71.5,29.5,29.86,SSW,207,11.0,13.0,21,0.00,,,0.00,441,Wunderground v.1.15,2013-05-26 14:41:00,
2013-05-26 07:46:00,72.1,30.0,29.87,SSW,197,11.0,13.0,21,0.00,,,0.00,482,Wunderground v.1.15,2013-05-26 14:46:00,
2013-05-26 07:56:00,73.3,29.8,29.86,South,188,11.0,12.0,20,0.00,,,0.00,503,Wunderground v.1.15,2013-05-26 14:56:00,
2013-05-26 08:06:00,74.4,30.7,29.87,South,185,10.0,14.0,20,0.00,,,0.00,541,Wunderground v.1.15,2013-05-26 15:06:00,
2013-05-26 08:16:00,75.1,30.0,29.87,South,176,11.0,18.0,19,0.00,,,0.00,573,Wunderground v.1.15,2013-05-26 15:16:00,
2013-05-26 08:21:00,75.4,30.2,29.87,South,181,11.0,11.0,19,0.00,,,0.00,592,Wunderground v.1.15,2013-05-26 15:21:00,
2013-05-26 08:31:00,75.8,29.2,29.87,South,180,11.0,13.0,18,0.00,,,0.00,622,Wunderground v.1.15,2013-05-26 15:31:00,
2013-05-26 08:36:00,76.0,29.4,29.87,South,173,12.0,13.0,18,0.00,,,0.00,645,Wunderground v.1.15,2013-05-26 15:36:00,
2013-05-26 08:46:00,77.0,30.2,29.87,South,173,10.0,11.0,18,0.00,,,0.00,680,Wunderground v.1.15,2013-05-26 15:46:00,
2013-05-26 08:56:00,77.7,27.9,29.87,South,180,11.0,11.0,16,0.00,,,0.00,708,Wunderground v.1.15,2013-05-26 15:56:00,
2013-05-26 09:06:00,78.6,27.1,29.87,SSW,202,10.0,16.0,15,0.00,,,0.00,751,Wunderground v.1.15,2013-05-26 16:06:00,
2013-05-26 09:11:00,78.7,27.1,29.87,SSW,192,11.0,12.0,15,0.00,,,0.00,754,Wunderground v.1.15,2013-05-26 16:11:00,
2013-05-26 09:21:00,79.8,28.0,29.87,South,174,9.0,10.0,15,0.00,,,0.00,775,Wunderground v.1.15,2013-05-26 16:21:00,
2013-05-26 09:26:00,80.3,26.7,29.87,SSE,165,8.0,10.0,14,0.00,,,0.00,802,Wunderground v.1.15,2013-05-26 16:26:00,
2013-05-26 09:36:00,81.4,23.9,29.87,SSW,200,8.0,11.0,12,0.00,,,0.00,819,Wunderground v.1.15,2013-05-26 16:36:00,
2013-05-26 09:46:00,82.5,20.4,29.87,SSW,201,8.0,8.0,10,0.00,,,0.00,854,Wunderground v.1.15,2013-05-26 16:46:00,
2013-05-26 09:56:00,82.9,20.7,29.87,SW,220,10.0,12.0,10,0.00,,,0.00,796,Wunderground v.1.15,2013-05-26 16:56:00,
2013-05-26 10:01:00,83.2,20.9,29.87,SW,224,9.0,10.0,10,0.00,,,0.00,886,Wunderground v.1.15,2013-05-26 17:01:00,
2013-05-26 10:11:00,83.8,21.4,29.87,SW,227,10.0,10.0,10,0.00,,,0.00,953,Wunderground v.1.15,2013-05-26 17:11:00,
2013-05-26 10:16:00,84.0,21.5,29.87,SW,226,10.0,12.0,10,0.00,,,0.00,921,Wunderground v.1.15,2013-05-26 17:16:00,
2013-05-26 10:26:00,84.6,19.5,29.87,SSW,203,10.0,10.0,9,0.00,,,0.00,893,Wunderground v.1.15,2013-05-26 17:26:00,
2013-05-26 10:36:00,85.4,20.1,29.87,South,180,8.0,14.0,9,0.00,,,0.00,984,Wunderground v.1.15,2013-05-26 17:36:00,
2013-05-26 10:46:00,86.6,21.0,29.87,South,177,5.0,11.0,9,0.00,,,0.00,949,Wunderground v.1.15,2013-05-26 17:46:00,
2013-05-26 10:51:00,87.0,18.6,29.87,SSW,200,5.0,5.0,8,0.00,,,0.00,882,Wunderground v.1.15,2013-05-26 17:51:00,
2013-05-26 11:01:00,87.9,16.1,29.86,SSW,199,4.0,6.0,7,0.00,,,0.00,926,Wunderground v.1.15,2013-05-26 18:01:00,
2013-05-26 11:06:00,87.9,16.1,29.86,South,176,6.0,6.0,7,0.00,,,0.00,976,Wunderground v.1.15,2013-05-26 18:06:00,
2013-05-26 11:16:00,88.1,16.3,29.85,South,173,8.0,10.0,7,0.00,,,0.00,889,Wunderground v.1.15,2013-05-26 18:16:00,
2013-05-26 11:21:00,88.3,16.4,29.86,South,181,8.0,8.0,7,0.00,,,0.00,1100,Wunderground v.1.15,2013-05-26 18:21:00,
2013-05-26 11:31:00,88.9,16.9,29.85,SSW,201,4.0,4.0,7,0.00,,,0.00,1041,Wunderground v.1.15,2013-05-26 18:31:00,
2013-05-26 11:41:00,89.4,17.2,29.85,South,188,7.0,7.0,7,0.00,,,0.00,1078,Wunderground v.1.15,2013-05-26 18:41:00,
2013-05-26 11:51:00,90.2,17.8,29.85,SSW,196,6.0,11.0,7,0.00,,,0.00,847,Wunderground v.1.15,2013-05-26 18:51:00,
2013-05-26 11:56:00,89.9,14.0,29.85,SW,226,6.0,11.0,6,0.00,,,0.00,847,Wunderground v.1.15,2013-05-26 18:56:00,
2013-05-26 12:06:00,89.9,17.6,29.84,South,173,6.0,10.0,7,0.00,,,0.00,1146,Wunderground v.1.15,2013-05-26 19:06:00,
2013-05-26 12:11:00,90.2,14.2,29.84,SSW,197,9.0,9.0,6,0.00,,,0.00,1106,Wunderground v.1.15,2013-05-26 19:11:00,
2013-05-26 12:21:00,90.7,14.6,29.85,SSW,203,8.0,9.0,6,0.00,,,0.00,1069,Wunderground v.1.15,2013-05-26 19:21:00,
2013-05-26 12:31:00,90.8,10.5,29.84,SSW,197,7.0,7.0,5,0.00,,,0.00,1042,Wunderground v.1.15,2013-05-26 19:31:00,
2013-05-26 12:41:00,90.9,10.6,29.84,SW,216,9.0,16.0,5,0.00,,,0.00,1164,Wunderground v.1.15,2013-05-26 19:41:00,
2013-05-26 12:51:00,91.0,10.7,29.84,West,259,10.0,10.0,5,0.00,,,0.00,809,Wunderground v.1.15,2013-05-26 19:51:00,
2013-05-26 13:01:00,90.8,10.5,29.84,SW,220,10.0,14.0,5,0.00,,,0.00,972,Wunderground v.1.15,2013-05-26 20:01:00,
2013-05-26 13:11:00,90.8,10.5,29.84,SW,216,11.0,12.0,5,0.00,,,0.00,1065,Wunderground v.1.15,2013-05-26 20:11:00,
2013-05-26 13:21:00,90.8,10.5,29.83,SSW,210,10.0,10.0,5,0.00,,,0.00,1083,Wunderground v.1.15,2013-05-26 20:21:00,
2013-05-26 13:31:00,90.7,10.5,29.83,South,172,10.0,17.0,5,0.00,,,0.00,1116,Wunderground v.1.15,2013-05-26 20:31:00,
2013-05-26 13:36:00,90.6,10.4,29.83,SW,221,12.0,17.0,5,0.00,,,0.00,1078,Wunderground v.1.15,2013-05-26 20:36:00,
2013-05-26 13:46:00,90.9,10.6,29.83,SSW,199,11.0,12.0,5,0.00,,,0.00,1025,Wunderground v.1.15,2013-05-26 20:46:00,
2013-05-26 13:51:00,91.0,10.7,29.83,SW,215,10.0,10.0,5,0.00,,,0.00,1035,Wunderground v.1.15,2013-05-26 20:51:00,
2013-05-26 14:01:00,91.4,6.0,29.83,SSW,197,9.0,9.0,4,0.00,,,0.00,974,Wunderground v.1.15,2013-05-26 21:01:00,
2013-05-26 14:11:00,91.2,10.8,29.83,West,265,11.0,13.0,5,0.00,,,0.00,977,Wunderground v.1.15,2013-05-26 21:11:00,
2013-05-26 14:21:00,91.1,5.8,29.82,SSW,193,10.0,10.0,4,0.00,,,0.00,947,Wunderground v.1.15,2013-05-26 21:21:00,
2013-05-26 14:31:00,91.1,10.8,29.82,SW,228,11.0,11.0,5,0.00,,,0.00,932,Wunderground v.1.15,2013-05-26 21:31:00,
2013-05-26 14:41:00,91.2,10.8,29.82,West,261,9.0,9.0,5,0.00,,,0.00,877,Wunderground v.1.15,2013-05-26 21:41:00,
2013-05-26 14:51:00,91.3,10.9,29.82,SW,222,10.0,10.0,5,0.00,,,0.00,875,Wunderground v.1.15,2013-05-26 21:51:00,
2013-05-26 14:56:00,91.5,11.0,29.82,SSE,164,9.0,12.0,5,0.00,,,0.00,863,Wunderground v.1.15,2013-05-26 21:56:00,
2013-05-26 15:06:00,91.6,15.2,29.81,SSW,199,9.0,10.0,6,0.00,,,0.00,833,Wunderground v.1.15,2013-05-26 22:06:00,
2013-05-26 15:11:00,91.6,11.1,29.81,SW,236,9.0,12.0,5,0.00,,,0.00,816,Wunderground v.1.15,2013-05-26 22:11:00,
2013-05-26 15:21:00,91.2,15.0,29.81,SW,216,10.0,10.0,6,0.00,,,0.00,782,Wunderground v.1.15,2013-05-26 22:21:00,
2013-05-26 15:31:00,90.7,14.6,29.80,SW,228,9.0,10.0,6,0.00,,,0.00,752,Wunderground v.1.15,2013-05-26 22:31:00,
2013-05-26 15:41:00,90.5,14.5,29.80,South,171,11.0,11.0,6,0.00,,,0.00,712,Wunderground v.1.15,2013-05-26 22:41:00,
2013-05-26 15:46:00,90.3,10.2,29.80,SW,216,10.0,11.0,5,0.00,,,0.00,693,Wunderground v.1.15,2013-05-26 22:46:00,
2013-05-26 15:56:00,90.1,10.0,29.80,SSW,195,10.0,11.0,5,0.00,,,0.00,624,Wunderground v.1.15,2013-05-26 22:56:00,
2013-05-26 16:01:00,90.1,14.2,29.79,SSW,195,8.0,8.0,6,0.00,,,0.00,659,Wunderground v.1.15,2013-05-26 23:01:00,
2013-05-26 16:11:00,90.0,14.1,29.79,SSW,197,10.0,15.0,6,0.00,,,0.00,629,Wunderground v.1.15,2013-05-26 23:11:00,
2013-05-26 16:21:00,89.5,13.7,29.79,SW,234,10.0,13.0,6,0.00,,,0.00,589,Wunderground v.1.15,2013-05-26 23:21:00,
2013-05-26 16:31:00,89.5,9.6,29.79,SSW,210,9.0,11.0,5,0.00,,,0.00,548,Wunderground v.1.15,2013-05-26 23:31:00,
2013-05-26 16:41:00,89.5,13.7,29.78,SW,217,7.0,10.0,6,0.00,,,0.00,524,Wunderground v.1.15,2013-05-26 23:41:00,
2013-05-26 16:46:00,89.4,13.7,29.78,South,184,7.0,10.0,6,0.00,,,0.00,504,Wunderground v.1.15,2013-05-26 23:46:00,
2013-05-26 16:56:00,89.1,9.3,29.78,SSW,203,10.0,12.0,5,0.00,,,0.00,469,Wunderground v.1.15,2013-05-26 23:56:00,
2013-05-26 17:06:00,88.7,13.2,29.78,SW,218,9.0,10.0,6,0.00,,,0.00,432,Wunderground v.1.15,2013-05-27 00:06:00,
2013-05-26 17:16:00,88.6,13.1,29.78,SW,226,7.0,11.0,6,0.00,,,0.00,396,Wunderground v.1.15,2013-05-27 00:16:00,
2013-05-26 17:26:00,88.2,12.8,29.78,SSW,203,7.0,7.0,6,0.00,,,0.00,359,Wunderground v.1.15,2013-05-27 00:26:00,
2013-05-26 17:36:00,87.7,12.5,29.78,SW,226,8.0,8.0,6,0.00,,,0.00,320,Wunderground v.1.15,2013-05-27 00:36:00,
2013-05-26 17:41:00,87.5,12.3,29.78,SSW,201,7.0,8.0,6,0.00,,,0.00,301,Wunderground v.1.15,2013-05-27 00:41:00,
2013-05-26 17:51:00,87.1,15.5,29.78,SSW,205,7.0,7.0,7,0.00,,,0.00,267,Wunderground v.1.15,2013-05-27 00:51:00,
2013-05-26 17:56:00,86.6,15.2,29.78,SSW,210,8.0,8.0,7,0.00,,,0.00,246,Wunderground v.1.15,2013-05-27 00:56:00,
2013-05-26 18:06:00,86.1,14.8,29.78,SW,218,8.0,8.0,7,0.00,,,0.00,202,Wunderground v.1.15,2013-05-27 01:06:00,
2013-05-26 18:11:00,85.9,14.7,29.78,SSW,199,7.0,7.0,7,0.00,,,0.00,178,Wunderground v.1.15,2013-05-27 01:11:00,
2013-05-26 18:21:00,85.4,17.4,29.78,SW,215,6.0,6.0,8,0.00,,,0.00,137,Wunderground v.1.15,2013-05-27 01:21:00,
2013-05-26 18:26:00,85.2,17.2,29.78,SW,215,3.0,6.0,8,0.00,,,0.00,116,Wunderground v.1.15,2013-05-27 01:26:00,
2013-05-26 18:36:00,84.5,16.7,29.78,SSW,208,5.0,10.0,8,0.00,,,0.00,77,Wunderground v.1.15,2013-05-27 01:36:00,
2013-05-26 18:46:00,83.7,16.1,29.79,SW,216,6.0,7.0,8,0.00,,,0.00,46,Wunderground v.1.15,2013-05-27 01:46:00,
2013-05-26 18:56:00,82.9,18.2,29.79,SW,216,5.0,6.0,9,0.00,,,0.00,21,Wunderground v.1.15,2013-05-27 01:56:00,
2013-05-26 19:01:00,82.4,17.9,29.79,SSW,212,4.0,5.0,9,0.00,,,0.00,12,Wunderground v.1.15,2013-05-27 02:01:00,
2013-05-26 19:11:00,81.5,17.2,29.80,SW,214,4.0,7.0,9,0.00,,,0.00,5,Wunderground v.1.15,2013-05-27 02:11:00,
2013-05-26 19:21:00,80.5,18.9,29.80,SW,214,2.0,2.0,10,0.00,,,0.00,0,Wunderground v.1.15,2013-05-27 02:21:00,
2013-05-26 19:31:00,79.7,18.3,29.80,SW,214,0.0,0.0,10,0.00,,,0.00,0,Wunderground v.1.15,2013-05-27 02:31:00,
2013-05-26 19:36:00,79.1,17.8,29.81,SW,214,0.0,1.0,10,0.00,,,0.00,0,Wunderground v.1.15,2013-05-27 02:36:00,
2013-05-26 19:46:00,77.9,19.1,29.81,SW,214,0.0,0.0,11,0.00,,,0.00,0,Wunderground v.1.15,2013-05-27 02:46:00,
2013-05-26 19:56:00,76.9,18.3,29.81,SW,214,0.0,0.0,11,0.00,,,0.00,0,Wunderground v.1.15,2013-05-27 02:56:00,
2013-05-26 20:06:00,75.5,19.3,29.81,SW,214,0.0,1.0,12,0.00,,,0.00,0,Wunderground v.1.15,2013-05-27 03:06:00,
2013-05-26 20:11:00,74.9,20.7,29.82,SW,214,0.0,0.0,13,0.00,,,0.00,0,Wunderground v.1.15,2013-05-27 03:11:00,
2013-05-26 20:21:00,74.0,20.0,29.82,SW,214,0.0,0.0,13,0.00,,,0.00,0,Wunderground v.1.15,2013-05-27 03:21:00,
2013-05-26 20:26:00,73.5,19.6,29.82,SW,214,0.0,0.0,13,0.00,,,0.00,0,Wunderground v.1.15,2013-05-27 03:26:00,
2013-05-26 20:36:00,72.7,20.7,29.83,SW,214,0.0,0.0,14,0.00,,,0.00,0,Wunderground v.1.15,2013-05-27 03:36:00,
2013-05-26 20:46:00,71.8,20.0,29.83,SW,214,0.0,0.0,14,0.00,,,0.00,0,Wunderground v.1.15,2013-05-27 03:46:00,
2013-05-26 20:56:00,70.9,20.9,29.83,SW,214,0.0,0.0,15,0.00,,,0.00,0,Wunderground v.1.15,2013-05-27 03:56:00,
2013-05-26 21:01:00,70.4,20.5,29.83,SW,214,0.0,0.0,15,0.00,,,0.00,0,Wunderground v.1.15,2013-05-27 04:01:00,
2013-05-26 21:06:00,70.0,20.2,29.83,SW,214,0.0,0.0,15,0.00,,,0.00,0,Wunderground v.1.15,2013-05-27 04:06:00,
2013-05-26 21:11:00,69.6,19.9,29.83,SW,214,0.0,0.0,15,0.00,,,0.00,0,Wunderground v.1.15,2013-05-27 04:11:00,
2013-05-26 21:16:00,69.2,19.5,29.84,SW,214,0.0,0.0,15,0.00,,,0.00,0,Wunderground v.1.15,2013-05-27 04:16:00,
2013-05-26 21:21:00,68.6,19.1,29.84,SW,214,0.0,0.0,15,0.00,,,0.00,0,Wunderground v.1.15,2013-05-27 04:21:00,
2013-05-26 21:31:00,67.8,19.9,29.84,SW,214,0.0,0.0,16,0.00,,,0.00,0,Wunderground v.1.15,2013-05-27 04:31:00,
2013-05-26 21:36:00,67.6,19.8,29.84,SW,214,0.0,0.0,16,0.00,,,0.00,0,Wunderground v.1.15,2013-05-27 04:36:00,
2013-05-26 21:41:00,67.4,19.6,29.84,SW,214,0.0,0.0,16,0.00,,,0.00,0,Wunderground v.1.15,2013-05-27 04:41:00,
2013-05-26 21:51:00,66.8,19.1,29.84,SW,214,0.0,0.0,16,0.00,,,0.00,0,Wunderground v.1.15,2013-05-27 04:51:00,
2013-05-26 22:01:00,66.1,18.5,29.84,SW,214,0.0,0.0,16,0.00,,,0.00,0,Wunderground v.1.15,2013-05-27 05:01:00,
2013-05-26 22:11:00,65.1,19.2,29.84,SW,214,0.0,0.0,17,0.00,,,0.00,0,Wunderground v.1.15,2013-05-27 05:11:00,
2013-05-26 22:21:00,64.5,20.0,29.84,SW,214,0.0,0.0,18,0.00,,,0.00,0,Wunderground v.1.15,2013-05-27 05:21:00,
2013-05-26 22:26:00,64.1,19.7,29.84,SW,214,0.0,0.0,18,0.00,,,0.00,0,Wunderground v.1.15,2013-05-27 05:26:00,
2013-05-26 22:36:00,63.2,21.4,29.84,SW,214,0.0,0.0,20,0.00,,,0.00,0,Wunderground v.1.15,2013-05-27 05:36:00,
2013-05-26 22:41:00,63.1,21.3,29.84,SW,214,0.0,0.0,20,0.00,,,0.00,0,Wunderground v.1.15,2013-05-27 05:41:00,
2013-05-26 22:51:00,62.9,21.2,29.83,SW,214,0.0,0.0,20,0.00,,,0.00,0,Wunderground v.1.15,2013-05-27 05:51:00,
2013-05-26 23:01:00,63.4,22.7,29.83,SW,214,1.0,1.0,21,0.00,,,0.00,0,Wunderground v.1.15,2013-05-27 06:01:00,
2013-05-26 23:11:00,63.8,23.1,29.83,SW,214,0.0,0.0,21,0.00,,,0.00,0,Wunderground v.1.15,2013-05-27 06:11:00,
2013-05-26 23:21:00,63.9,22.0,29.83,SW,214,0.0,0.0,20,0.00,,,0.00,0,Wunderground v.1.15,2013-05-27 06:21:00,
2013-05-26 23:31:00,63.6,22.9,29.83,SW,214,0.0,0.0,21,0.00,,,0.00,0,Wunderground v.1.15,2013-05-27 06:31:00,
2013-05-26 23:36:00,63.3,21.5,29.83,SW,214,0.0,0.0,20,0.00,,,0.00,0,Wunderground v.1.15,2013-05-27 06:36:00,
2013-05-26 23:46:00,62.5,19.6,29.83,SW,214,0.0,0.0,19,0.00,,,0.00,0,Wunderground v.1.15,2013-05-27 06:46:00,
2013-05-26 23:51:00,61.8,20.3,29.83,SW,214,0.0,0.0,20,0.00,,,0.00,0,Wunderground v.1.15,2013-05-27 06:51:00,